Flag for U.S.A. Weather past 2 weeks in Portland, Maine, U.S.A.

Now
76 °F

Partly sunny.


Feels Like: 78 °F
Forecast: 64 / 78 °F
Wind: 5 mph from South

Location: Portland - Portland International Jetport

Current Time: Aug 30, 2015 at 5:10:01 PM

Latest Report: Aug 30, 2015 at 3:51 PM


Visibility: 10 mi

Pressure: 30.01 "Hg

Humidity: 67%

Dew point: 64 °F

Location of PortlandLocation

Historic Weather in Portland — Graph

°F

Portland temperature yesterday

Maximum temperature yesterday: 74 °F (at 10:51 AM)
Minimum temperature yesterday: 56 °F (at 5:51 AM)
Average temperature yesterday: 67 °F

Past Weeks' High & Low Weather Summary

 TemperatureHumidityPressure
High88 °F (Aug 17, 12:51 PM)100% (Aug 16, 1:51 AM)30.18 "Hg (Aug 16, 1:51 AM)
Low55 °F (Aug 28, 5:51 AM)46% (Aug 27, 12:51 PM)29.85 "Hg (Aug 26, 4:51 PM)
Average71 °F85%30.02 "Hg
* Reported Aug 15 2:51 PM — Aug 30 2:51 PM, Portland, Weather by CustomWeather, © 2015

Note: Actual official high and low records may vary slightly from our data, if they occured in-between our weather recording intervals... More about our weather records

Advertising

Portland weather history for previous 24 hours

 ConditionsComfort  
Time TempWeatherWind HumidityBarometerVisibility
2:51 PM
Sun, Aug 30
76 °FScattered clouds.8 mph67%30.01 "Hg10 mi
1:51 PM77 °FScattered clouds.6 mph66%30.02 "Hg10 mi
12:51 PM79 °FScattered clouds.No wind54%30.03 "Hg10 mi
11:51 AM78 °FScattered clouds.3 mph60%30.05 "Hg10 mi
10:51 AM77 °FPartly sunny.5 mph62%30.06 "Hg10 mi
9:51 AM75 °FPartly sunny.6 mph69%30.05 "Hg10 mi
8:51 AM71 °FPartly sunny.3 mph78%30.04 "Hg10 mi
7:51 AM65 °FPartly sunny.6 mph87%30.05 "Hg10 mi
6:51 AM62 °FPassing clouds.No wind93%30.04 "Hg10 mi
5:51 AM61 °FPassing clouds.No wind97%30.02 "Hg10 mi
4:51 AM63 °FPassing clouds.No wind93%30.03 "Hg10 mi
3:51 AM65 °FClear.No wind87%30.03 "Hg10 mi
2:51 AM65 °FClear.3 mph87%30.03 "Hg10 mi
1:51 AM65 °FClear.No wind87%30.05 "Hg10 mi
12:51 AM66 °FClear.No wind84%30.06 "Hg10 mi
11:51 PM
Sat, Aug 29
66 °FMostly cloudy.3 mph84%30.06 "Hg10 mi
10:51 PM67 °FMostly cloudy.5 mph81%30.06 "Hg10 mi
9:51 PM67 °FMostly cloudy.5 mph81%30.06 "Hg10 mi
8:51 PM68 °FPartly cloudy.5 mph78%30.07 "Hg10 mi
7:51 PM68 °FMore clouds than sun.6 mph84%30.06 "Hg10 mi
6:51 PM70 °FMore clouds than sun.7 mph76%30.06 "Hg10 mi
5:51 PM72 °FPartly sunny.7 mph66%30.06 "Hg10 mi
Weather by CustomWeather, © 2015

See weather overviewHow to use our weather pages